TimeCDT,TemperatureF,Dew PointF,Humidity,Sea Level PressureIn,VisibilityMPH,Wind Direction,Wind SpeedMPH,Gust SpeedMPH,PrecipitationIn,Events,Conditions,WindDirDegrees,DateUTC
12:56 AM,43.9,43.0,97,29.99,10.0,Calm,Calm,-,N/A,,Clear,0,2012-10-04 05:56:00
1:56 AM,43.0,41.0,93,29.99,10.0,Calm,Calm,-,N/A,,Clear,0,2012-10-04 06:56:00
2:56 AM,41.9,39.9,93,29.97,10.0,Calm,Calm,-,N/A,,Clear,0,2012-10-04 07:56:00
3:56 AM,41.0,39.9,96,29.96,10.0,Calm,Calm,-,N/A,,Clear,0,2012-10-04 08:56:00
4:56 AM,41.0,39.9,96,29.96,10.0,Calm,Calm,-,N/A,,Clear,0,2012-10-04 09:56:00
5:56 AM,39.9,39.9,100,29.95,9.0,Calm,Calm,-,N/A,,Scattered Clouds,0,2012-10-04 10:56:00
6:06 AM,39.2,39.2,100,29.95,8.0,Calm,Calm,-,N/A,,Mostly Cloudy,0,2012-10-04 11:06:00
6:36 AM,41.0,39.2,93,29.95,10.0,Calm,Calm,-,N/A,,Overcast,0,2012-10-04 11:36:00
6:56 AM,41.0,39.9,96,29.94,8.0,Calm,Calm,-,N/A,,Mostly Cloudy,0,2012-10-04 11:56:00
7:04 AM,41.0,39.2,93,29.94,7.0,Calm,Calm,-,N/A,,Mostly Cloudy,0,2012-10-04 12:04:00
7:30 AM,39.2,39.2,100,29.94,1.8,Calm,Calm,-,N/A,,Mostly Cloudy,0,2012-10-04 12:30:00
7:39 AM,41.0,39.2,93,29.94,3.0,Calm,Calm,-,N/A,,Scattered Clouds,0,2012-10-04 12:39:00
7:56 AM,41.9,41.0,97,29.94,8.0,Calm,Calm,-,N/A,,Partly Cloudy,0,2012-10-04 12:56:00
8:56 AM,50.9,46.9,86,29.92,10.0,Calm,Calm,-,N/A,,Clear,0,2012-10-04 13:56:00
9:56 AM,61.0,50.0,67,29.92,10.0,Calm,Calm,-,N/A,,Scattered Clouds,0,2012-10-04 14:56:00
10:56 AM,63.9,48.9,58,29.91,10.0,SSW,12.7,18.4,N/A,,Mostly Cloudy,210,2012-10-04 15:56:00
11:56 AM,64.9,45.9,50,29.91,10.0,SW,17.3,21.9,N/A,,Partly Cloudy,230,2012-10-04 16:56:00
12:56 PM,65.8,45.9,48,29.91,10.0,West,12.7,21.9,N/A,,Clear,260,2012-10-04 17:56:00
1:56 PM,65.8,41.0,40,29.93,10.0,West,16.1,20.7,N/A,,Clear,270,2012-10-04 18:56:00
2:56 PM,63.9,38.8,40,29.94,10.0,WSW,17.3,25.3,N/A,,Mostly Cloudy,250,2012-10-04 19:56:00
3:56 PM,64.9,36.0,34,29.94,10.0,West,17.3,21.9,N/A,,Mostly Cloudy,270,2012-10-04 20:56:00
4:56 PM,61.0,34.9,38,29.96,10.0,West,17.3,26.5,N/A,,Clear,280,2012-10-04 21:56:00
5:56 PM,57.9,32.9,39,29.98,10.0,West,13.8,24.2,N/A,,Clear,280,2012-10-04 22:56:00
6:56 PM,52.9,32.9,47,30.01,10.0,West,15.0,-,N/A,,Clear,270,2012-10-04 23:56:00
7:56 PM,50.0,32.0,50,30.04,10.0,West,11.5,-,N/A,,Clear,270,2012-10-05 00:56:00
9:56 PM,45.9,31.1,56,30.06,10.0,West,17.3,25.3,N/A,,Clear,270,2012-10-05 02:56:00
10:56 PM,43.9,31.1,61,30.06,10.0,West,9.2,-,N/A,,Clear,260,2012-10-05 03:56:00
11:56 PM,41.9,31.1,66,30.08,10.0,West,6.9,-,N/A,,Clear,260,2012-10-05 04:56:00